Year,Month,Day,Hour,Minute,Value (Times are PST for temperature in C)
2009,07,27,00,00,17.80
2009,07,27,00,01,17.80
2009,07,27,00,02,17.80
2009,07,27,00,03,17.80
2009,07,27,00,04,17.80
2009,07,27,00,05,17.80
2009,07,27,00,06,17.80
2009,07,27,00,07,17.80
2009,07,27,00,08,17.70
2009,07,27,00,09,17.70
2009,07,27,00,10,17.70
2009,07,27,00,11,17.70
2009,07,27,00,12,17.70
2009,07,27,00,13,17.70
2009,07,27,00,14,17.70
2009,07,27,00,15,17.70
2009,07,27,00,16,17.70
2009,07,27,00,17,17.70
2009,07,27,00,18,17.80
2009,07,27,00,19,17.80
2009,07,27,00,20,17.80
2009,07,27,00,21,17.80
2009,07,27,00,22,17.80
2009,07,27,00,23,17.80
2009,07,27,00,24,17.80
2009,07,27,00,25,17.80
2009,07,27,00,26,17.80
2009,07,27,00,27,17.80
2009,07,27,00,28,17.80
2009,07,27,00,29,17.80
2009,07,27,00,30,17.80
2009,07,27,00,31,17.80
2009,07,27,00,32,17.80
2009,07,27,00,33,17.80
2009,07,27,00,34,17.80
2009,07,27,00,35,17.80
2009,07,27,00,36,17.80
2009,07,27,00,37,17.90
2009,07,27,00,38,17.90
2009,07,27,00,39,17.90
2009,07,27,00,40,17.90
2009,07,27,00,41,17.80
2009,07,27,00,42,17.80
2009,07,27,00,43,17.80
2009,07,27,00,44,17.80
2009,07,27,00,45,17.80
2009,07,27,00,46,17.80
2009,07,27,00,47,17.80
2009,07,27,00,48,17.80
2009,07,27,00,49,17.80
2009,07,27,00,50,17.80
2009,07,27,00,51,17.80
2009,07,27,00,52,17.80
2009,07,27,00,53,17.80
2009,07,27,00,54,17.80
2009,07,27,00,55,17.80
2009,07,27,00,56,17.70
2009,07,27,00,57,17.70
2009,07,27,00,58,17.80
2009,07,27,00,59,17.80
2009,07,27,01,00,17.80
2009,07,27,01,01,17.80
2009,07,27,01,02,17.80
2009,07,27,01,03,17.80
2009,07,27,01,04,17.80
2009,07,27,01,05,17.80
2009,07,27,01,06,17.80
2009,07,27,01,07,17.80
2009,07,27,01,08,17.80
2009,07,27,01,09,17.80
2009,07,27,01,10,17.80
2009,07,27,01,11,17.80
2009,07,27,01,12,17.80
2009,07,27,01,13,17.80
2009,07,27,01,14,17.70
2009,07,27,01,15,17.70
2009,07,27,01,16,17.70
2009,07,27,01,17,17.60
2009,07,27,01,18,17.60
2009,07,27,01,19,17.60
2009,07,27,01,20,17.60
2009,07,27,01,21,17.50
2009,07,27,01,22,17.50
2009,07,27,01,23,17.50
2009,07,27,01,24,17.50
2009,07,27,01,25,17.50
2009,07,27,01,26,17.40
2009,07,27,01,27,17.40
2009,07,27,01,28,17.40
2009,07,27,01,29,17.40
2009,07,27,01,30,17.40
2009,07,27,01,31,17.40
2009,07,27,01,32,17.40
2009,07,27,01,33,17.50
2009,07,27,01,34,17.50
2009,07,27,01,35,17.50
2009,07,27,01,36,17.40
2009,07,27,01,37,17.40
2009,07,27,01,38,17.40
2009,07,27,01,39,17.40
2009,07,27,01,40,17.40
2009,07,27,01,41,17.40
2009,07,27,01,42,17.40
2009,07,27,01,43,17.40
2009,07,27,01,44,17.40
2009,07,27,01,45,17.30
2009,07,27,01,46,17.30
2009,07,27,01,47,17.30
2009,07,27,01,48,17.30
2009,07,27,01,49,17.30
2009,07,27,01,50,17.30
2009,07,27,01,51,17.30
2009,07,27,01,52,17.30
2009,07,27,01,53,17.30
2009,07,27,01,54,17.20
2009,07,27,01,55,17.20
2009,07,27,01,56,17.10
2009,07,27,01,57,17.00
2009,07,27,01,58,17.00
2009,07,27,01,59,17.00
2009,07,27,02,00,16.90
2009,07,27,02,01,16.90
2009,07,27,02,02,16.90
2009,07,27,02,03,16.80
2009,07,27,02,04,16.80
2009,07,27,02,05,16.80
2009,07,27,02,06,16.70
2009,07,27,02,07,16.70
2009,07,27,02,08,16.70
2009,07,27,02,09,16.70
2009,07,27,02,10,16.70
2009,07,27,02,11,16.70
2009,07,27,02,12,16.70
2009,07,27,02,13,16.60
2009,07,27,02,14,16.60
2009,07,27,02,15,16.60
2009,07,27,02,16,16.60
2009,07,27,02,17,16.60
2009,07,27,02,18,16.60
2009,07,27,02,19,16.60
2009,07,27,02,20,16.60
2009,07,27,02,21,16.60
2009,07,27,02,22,16.60
2009,07,27,02,23,16.60
2009,07,27,02,24,16.60
2009,07,27,02,25,16.60
2009,07,27,02,26,16.60
2009,07,27,02,27,16.60
2009,07,27,02,28,16.60
2009,07,27,02,29,16.60
2009,07,27,02,30,16.60
2009,07,27,02,31,16.60
2009,07,27,02,32,16.60
2009,07,27,02,33,16.70
2009,07,27,02,34,16.70
2009,07,27,02,35,16.70
2009,07,27,02,36,16.70
2009,07,27,02,37,16.70
2009,07,27,02,38,16.70
2009,07,27,02,39,16.70
2009,07,27,02,40,16.70
2009,07,27,02,41,16.70
2009,07,27,02,42,16.70
2009,07,27,02,43,16.70
2009,07,27,02,44,16.70
2009,07,27,02,45,16.70
2009,07,27,02,46,16.70
2009,07,27,02,47,16.70
2009,07,27,02,48,16.70
2009,07,27,02,49,16.70
2009,07,27,02,50,16.70
2009,07,27,02,51,16.70
2009,07,27,02,52,16.70
2009,07,27,02,53,16.70
2009,07,27,02,54,16.70
2009,07,27,02,55,16.70
2009,07,27,02,56,16.70
2009,07,27,02,57,16.70
2009,07,27,02,58,16.70
2009,07,27,02,59,16.70
2009,07,27,03,00,16.60
2009,07,27,03,01,16.60
2009,07,27,03,02,16.60
2009,07,27,03,03,16.50
2009,07,27,03,04,16.40
2009,07,27,03,05,16.40
2009,07,27,03,06,16.40
2009,07,27,03,07,16.40
2009,07,27,03,08,16.40
2009,07,27,03,09,16.40
2009,07,27,03,10,16.40
2009,07,27,03,11,16.40
2009,07,27,03,12,16.40
2009,07,27,03,13,16.40
2009,07,27,03,14,16.40
2009,07,27,03,15,16.40
2009,07,27,03,16,16.40
2009,07,27,03,17,16.30
2009,07,27,03,18,16.30
2009,07,27,03,19,16.30
2009,07,27,03,20,16.30
2009,07,27,03,21,16.30
2009,07,27,03,22,16.20
2009,07,27,03,23,16.20
2009,07,27,03,24,16.20
2009,07,27,03,25,16.10
2009,07,27,03,26,16.10
2009,07,27,03,27,16.10
2009,07,27,03,28,16.00
2009,07,27,03,29,15.90
2009,07,27,03,30,15.80
2009,07,27,03,31,15.80
2009,07,27,03,32,15.80
2009,07,27,03,33,15.70
2009,07,27,03,34,15.70
2009,07,27,03,35,15.60
2009,07,27,03,36,15.60
2009,07,27,03,37,15.50
2009,07,27,03,38,15.50
2009,07,27,03,39,15.50
2009,07,27,03,40,15.40
2009,07,27,03,41,15.40
2009,07,27,03,42,15.40
2009,07,27,03,43,15.30
2009,07,27,03,44,15.30
2009,07,27,03,45,15.30
2009,07,27,03,46,15.20
2009,07,27,03,47,15.20
2009,07,27,03,48,15.20
2009,07,27,03,49,15.10
2009,07,27,03,50,15.10
2009,07,27,03,51,15.10
2009,07,27,03,52,15.00
2009,07,27,03,53,15.00
2009,07,27,03,54,14.90
2009,07,27,03,55,14.90
2009,07,27,03,56,14.90
2009,07,27,03,57,14.90
2009,07,27,03,58,14.80
2009,07,27,03,59,14.80
2009,07,27,04,00,14.80
2009,07,27,04,01,14.80
2009,07,27,04,02,14.80
2009,07,27,04,03,14.80
2009,07,27,04,04,14.80
2009,07,27,04,05,14.70
2009,07,27,04,06,14.70
2009,07,27,04,07,14.70
2009,07,27,04,08,14.70
2009,07,27,04,09,14.70
2009,07,27,04,10,14.70
2009,07,27,04,11,14.70
2009,07,27,04,12,14.70
2009,07,27,04,13,14.60
2009,07,27,04,14,14.60
2009,07,27,04,15,14.60
2009,07,27,04,16,14.70
2009,07,27,04,17,14.70
2009,07,27,04,18,14.70
2009,07,27,04,19,14.60
2009,07,27,04,20,14.60
2009,07,27,04,21,14.60
2009,07,27,04,22,14.60
2009,07,27,04,23,14.60
2009,07,27,04,24,14.60
2009,07,27,04,25,14.60
2009,07,27,04,26,14.60
2009,07,27,04,27,14.60
2009,07,27,04,28,14.60
2009,07,27,04,29,14.60
2009,07,27,04,30,14.60
2009,07,27,04,31,14.50
2009,07,27,04,32,14.50
2009,07,27,04,33,14.50
2009,07,27,04,34,14.50
2009,07,27,04,35,14.50
2009,07,27,04,36,14.50
2009,07,27,04,37,14.50
2009,07,27,04,38,14.50
2009,07,27,04,39,14.50
2009,07,27,04,40,14.50
2009,07,27,04,41,14.50
2009,07,27,04,42,14.50
2009,07,27,04,43,14.50
2009,07,27,04,44,14.50
2009,07,27,04,45,14.60
2009,07,27,04,46,14.60
2009,07,27,04,47,14.60
2009,07,27,04,48,14.60
2009,07,27,04,49,14.60
2009,07,27,04,50,14.60
2009,07,27,04,51,14.60
2009,07,27,04,52,14.60
2009,07,27,04,53,14.60
2009,07,27,04,54,14.60
2009,07,27,04,55,14.60
2009,07,27,04,56,14.60
2009,07,27,04,57,14.60
2009,07,27,04,58,14.60
2009,07,27,04,59,14.60
2009,07,27,05,00,14.60
2009,07,27,05,01,14.50
2009,07,27,05,02,14.50
2009,07,27,05,03,14.50
2009,07,27,05,04,14.50
2009,07,27,05,05,14.50
2009,07,27,05,06,14.50
2009,07,27,05,07,14.50
2009,07,27,05,08,14.50
2009,07,27,05,09,14.50
2009,07,27,05,10,14.50
2009,07,27,05,11,14.50
2009,07,27,05,12,14.50
2009,07,27,05,13,14.60
2009,07,27,05,14,14.60
2009,07,27,05,15,14.60
2009,07,27,05,16,14.60
2009,07,27,05,17,14.60
2009,07,27,05,18,14.70
2009,07,27,05,19,14.70
2009,07,27,05,20,14.70
2009,07,27,05,21,14.70
2009,07,27,05,22,14.80
2009,07,27,05,23,14.70
2009,07,27,05,24,14.70
2009,07,27,05,25,14.70
2009,07,27,05,26,14.70
2009,07,27,05,27,14.70
2009,07,27,05,28,14.70
2009,07,27,05,29,14.70
2009,07,27,05,30,14.70
2009,07,27,05,31,14.70
2009,07,27,05,32,14.70
2009,07,27,05,33,14.70
2009,07,27,05,34,14.70
2009,07,27,05,35,14.70
2009,07,27,05,36,14.70
2009,07,27,05,37,14.70
2009,07,27,05,38,14.70
2009,07,27,05,39,14.80
2009,07,27,05,40,14.80
2009,07,27,05,41,14.80
2009,07,27,05,42,14.80
2009,07,27,05,43,14.90
2009,07,27,05,44,14.90
2009,07,27,05,45,14.90
2009,07,27,05,46,14.90
2009,07,27,05,47,15.00
2009,07,27,05,48,15.00
2009,07,27,05,49,15.00
2009,07,27,05,50,15.00
2009,07,27,05,51,15.00
2009,07,27,05,52,15.00
2009,07,27,05,53,14.90
2009,07,27,05,54,14.90
2009,07,27,05,55,14.90
2009,07,27,05,56,15.00
2009,07,27,05,57,15.00
2009,07,27,05,58,15.00
2009,07,27,05,59,15.00
2009,07,27,06,00,15.00
2009,07,27,06,01,15.00
2009,07,27,06,02,15.10
2009,07,27,06,03,15.10
2009,07,27,06,04,15.10
2009,07,27,06,05,15.10
2009,07,27,06,06,15.10
2009,07,27,06,07,15.20
2009,07,27,06,08,15.20
2009,07,27,06,09,15.20
2009,07,27,06,10,15.20
2009,07,27,06,11,15.20
2009,07,27,06,12,15.20
2009,07,27,06,13,15.20
2009,07,27,06,14,15.30
2009,07,27,06,15,15.30
2009,07,27,06,16,15.30
2009,07,27,06,17,15.30
2009,07,27,06,18,15.30
2009,07,27,06,19,15.30
2009,07,27,06,20,15.30
2009,07,27,06,21,15.30
2009,07,27,06,22,15.40
2009,07,27,06,23,15.40
2009,07,27,06,24,15.50
2009,07,27,06,25,15.50
2009,07,27,06,26,15.60
2009,07,27,06,27,15.60
2009,07,27,06,28,15.70
2009,07,27,06,29,15.80
2009,07,27,06,30,15.80
2009,07,27,06,31,15.80
2009,07,27,06,32,15.90
2009,07,27,06,33,16.00
2009,07,27,06,34,16.10
2009,07,27,06,35,16.20
2009,07,27,06,36,16.30
2009,07,27,06,37,16.30
2009,07,27,06,38,16.40
2009,07,27,06,39,16.50
2009,07,27,06,40,16.70
2009,07,27,06,41,16.70
2009,07,27,06,42,16.80
2009,07,27,06,43,16.90
2009,07,27,06,44,17.00
2009,07,27,06,45,17.00
2009,07,27,06,46,17.10
2009,07,27,06,47,17.20
2009,07,27,06,48,17.30
2009,07,27,06,49,17.30
2009,07,27,06,50,17.40
2009,07,27,06,51,17.50
2009,07,27,06,52,17.50
2009,07,27,06,53,17.60
2009,07,27,06,54,17.70
2009,07,27,06,55,17.80
2009,07,27,06,56,17.90
2009,07,27,06,57,18.00
2009,07,27,06,58,18.20
2009,07,27,06,59,18.20
2009,07,27,07,00,18.30
2009,07,27,07,01,18.30
2009,07,27,07,02,18.40
2009,07,27,07,03,18.50
2009,07,27,07,04,18.50
2009,07,27,07,05,18.60
2009,07,27,07,06,18.60
2009,07,27,07,07,18.70
2009,07,27,07,08,18.70
2009,07,27,07,09,18.80
2009,07,27,07,10,18.90
2009,07,27,07,11,19.00
2009,07,27,07,12,19.10
2009,07,27,07,13,19.20
2009,07,27,07,14,19.30
2009,07,27,07,15,19.40
2009,07,27,07,16,19.50
2009,07,27,07,17,19.60
2009,07,27,07,18,19.60
2009,07,27,07,19,19.60
2009,07,27,07,20,19.60
2009,07,27,07,21,19.70
2009,07,27,07,22,19.70
2009,07,27,07,23,19.70
2009,07,27,07,24,19.70
2009,07,27,07,25,19.60
2009,07,27,07,26,19.60
2009,07,27,07,27,19.60
2009,07,27,07,28,19.50
2009,07,27,07,29,19.40
2009,07,27,07,30,19.30
2009,07,27,07,31,19.10
2009,07,27,07,32,19.00
2009,07,27,07,33,18.90
2009,07,27,07,34,18.70
2009,07,27,07,35,18.60
2009,07,27,07,36,18.50
2009,07,27,07,37,18.30
2009,07,27,07,38,18.20
2009,07,27,07,39,18.20
2009,07,27,07,40,18.20
2009,07,27,07,41,18.10
2009,07,27,07,42,18.10
2009,07,27,07,43,18.00
2009,07,27,07,44,17.90
2009,07,27,07,45,17.90
2009,07,27,07,46,17.90
2009,07,27,07,47,18.00
2009,07,27,07,48,18.10
2009,07,27,07,49,18.10
2009,07,27,07,50,18.10
2009,07,27,07,51,18.10
2009,07,27,07,52,18.10
2009,07,27,07,53,18.10
2009,07,27,07,54,18.20
2009,07,27,07,55,18.20
2009,07,27,07,56,18.20
2009,07,27,07,57,18.20
2009,07,27,07,58,18.20
2009,07,27,07,59,18.30
2009,07,27,08,00,18.40
2009,07,27,08,01,18.40
2009,07,27,08,02,18.50
2009,07,27,08,03,18.50
2009,07,27,08,04,18.60
2009,07,27,08,05,18.70
2009,07,27,08,06,18.70
2009,07,27,08,07,18.80
2009,07,27,08,08,18.90
2009,07,27,08,09,18.90
2009,07,27,08,10,18.90
2009,07,27,08,11,18.90
2009,07,27,08,12,19.00
2009,07,27,08,13,19.00
2009,07,27,08,14,18.90
2009,07,27,08,15,18.90
2009,07,27,08,16,18.90
2009,07,27,08,17,18.90
2009,07,27,08,18,18.90
2009,07,27,08,19,18.90
2009,07,27,08,20,18.90
2009,07,27,08,21,18.90
2009,07,27,08,22,18.90
2009,07,27,08,23,18.90
2009,07,27,08,24,18.90
2009,07,27,08,25,19.10
2009,07,27,08,26,19.10
2009,07,27,08,27,19.10
2009,07,27,08,28,19.10
2009,07,27,08,29,19.10
2009,07,27,08,30,19.10
2009,07,27,08,31,19.10
2009,07,27,08,32,19.10
2009,07,27,08,33,19.10
2009,07,27,08,34,19.00
2009,07,27,08,35,18.90
2009,07,27,08,36,18.90
2009,07,27,08,37,18.90
2009,07,27,08,38,18.90
2009,07,27,08,39,18.90
2009,07,27,08,40,18.90
2009,07,27,08,41,18.90
2009,07,27,08,42,18.90
2009,07,27,08,43,18.90
2009,07,27,08,44,18.90
2009,07,27,08,45,18.90
2009,07,27,08,46,19.00
2009,07,27,08,47,19.10
2009,07,27,08,48,19.10
2009,07,27,08,49,19.10
2009,07,27,08,50,19.20
2009,07,27,08,51,19.30
2009,07,27,08,52,19.40
2009,07,27,08,53,19.50
2009,07,27,08,54,19.60
2009,07,27,08,55,19.80
2009,07,27,08,56,19.90
2009,07,27,08,57,20.00
2009,07,27,08,58,20.10
2009,07,27,08,59,20.20
2009,07,27,09,00,20.30
2009,07,27,09,01,20.30
2009,07,27,09,02,20.40
2009,07,27,09,03,20.50
2009,07,27,09,04,20.60
2009,07,27,09,05,20.70
2009,07,27,09,06,20.70
2009,07,27,09,07,20.70
2009,07,27,09,08,20.80
2009,07,27,09,09,20.70
2009,07,27,09,10,20.80
2009,07,27,09,11,20.80
2009,07,27,09,12,20.90
2009,07,27,09,13,21.00
2009,07,27,09,14,21.10
2009,07,27,09,15,21.30
2009,07,27,09,16,21.50
2009,07,27,09,17,21.60
2009,07,27,09,18,21.70
2009,07,27,09,19,21.80
2009,07,27,09,20,21.90
2009,07,27,09,21,22.00
2009,07,27,09,22,22.10
2009,07,27,09,23,22.20
2009,07,27,09,24,22.20
2009,07,27,09,25,22.30
2009,07,27,09,26,22.30
2009,07,27,09,27,22.40
2009,07,27,09,28,22.40
2009,07,27,09,29,22.50
2009,07,27,09,30,22.50
2009,07,27,09,31,22.50
2009,07,27,09,32,22.50
2009,07,27,09,33,22.50
2009,07,27,09,34,22.60
2009,07,27,09,35,22.50
2009,07,27,09,36,22.50
2009,07,27,09,37,22.50
2009,07,27,09,38,22.50
2009,07,27,09,39,22.50
2009,07,27,09,40,22.50
2009,07,27,09,41,22.60
2009,07,27,09,42,22.60
2009,07,27,09,43,22.60
2009,07,27,09,44,22.60
2009,07,27,09,45,22.50
2009,07,27,09,46,22.50
2009,07,27,09,47,22.50
2009,07,27,09,48,22.50
2009,07,27,09,49,22.60
2009,07,27,09,50,22.60
2009,07,27,09,51,22.60
2009,07,27,09,52,22.60
2009,07,27,09,53,22.60
2009,07,27,09,54,22.70
2009,07,27,09,55,22.70
2009,07,27,09,56,22.70
2009,07,27,09,57,22.80
2009,07,27,09,58,22.80
2009,07,27,09,59,22.70
2009,07,27,10,00,22.60
2009,07,27,10,01,22.60
2009,07,27,10,02,22.60
2009,07,27,10,03,22.60
2009,07,27,10,04,22.50
2009,07,27,10,05,22.60
2009,07,27,10,06,22.60
2009,07,27,10,07,22.60
2009,07,27,10,08,22.60
2009,07,27,10,09,22.60
2009,07,27,10,10,22.70
2009,07,27,10,11,22.70
2009,07,27,10,12,22.80
2009,07,27,10,13,22.80
2009,07,27,10,14,22.90
2009,07,27,10,15,23.00
2009,07,27,10,16,23.20
2009,07,27,10,17,23.30
2009,07,27,10,18,23.30
2009,07,27,10,19,23.40
2009,07,27,10,20,23.50
2009,07,27,10,21,23.60
2009,07,27,10,22,23.70
2009,07,27,10,23,23.70
2009,07,27,10,24,23.70
2009,07,27,10,25,23.70
2009,07,27,10,26,23.70
2009,07,27,10,27,23.60
2009,07,27,10,28,23.60
2009,07,27,10,29,23.40
2009,07,27,10,30,23.30
2009,07,27,10,31,23.10
2009,07,27,10,32,23.10
2009,07,27,10,33,23.10
2009,07,27,10,34,23.10
2009,07,27,10,35,23.30
2009,07,27,10,36,23.30
2009,07,27,10,37,23.30
2009,07,27,10,38,23.30
2009,07,27,10,39,23.40
2009,07,27,10,40,23.50
2009,07,27,10,41,23.70
2009,07,27,10,42,23.70
2009,07,27,10,43,23.70
2009,07,27,10,44,23.80
2009,07,27,10,45,23.80
2009,07,27,10,46,23.70
2009,07,27,10,47,23.80
2009,07,27,10,48,23.90
2009,07,27,10,49,24.00
2009,07,27,10,50,24.10
2009,07,27,10,51,24.10
2009,07,27,10,52,24.20
2009,07,27,10,53,24.30
2009,07,27,10,54,24.50
2009,07,27,10,55,24.60
2009,07,27,10,56,24.70
2009,07,27,10,57,24.80
2009,07,27,10,58,24.90
2009,07,27,10,59,24.90
2009,07,27,11,00,25.10
2009,07,27,11,01,25.20
2009,07,27,11,02,25.30
2009,07,27,11,03,25.40
2009,07,27,11,04,25.40
2009,07,27,11,05,25.40
2009,07,27,11,06,25.20
2009,07,27,11,07,25.10
2009,07,27,11,08,25.00
2009,07,27,11,09,24.90
2009,07,27,11,10,24.80
2009,07,27,11,11,24.80
2009,07,27,11,12,24.80
2009,07,27,11,13,24.80
2009,07,27,11,14,24.80
2009,07,27,11,15,24.90
2009,07,27,11,16,24.90
2009,07,27,11,17,24.80
2009,07,27,11,18,24.90
2009,07,27,11,19,24.90
2009,07,27,11,20,24.90
2009,07,27,11,21,24.90
2009,07,27,11,22,24.80
2009,07,27,11,23,24.70
2009,07,27,11,24,24.60
2009,07,27,11,25,24.50
2009,07,27,11,26,24.40
2009,07,27,11,27,24.20
2009,07,27,11,28,24.00
2009,07,27,11,29,23.80
2009,07,27,11,30,23.70
2009,07,27,11,31,23.70
2009,07,27,11,32,23.60
2009,07,27,11,33,23.50
2009,07,27,11,34,23.40
2009,07,27,11,35,23.30
2009,07,27,11,36,23.30
2009,07,27,11,37,23.10
2009,07,27,11,38,22.90
2009,07,27,11,39,22.80
2009,07,27,11,40,22.70
2009,07,27,11,41,22.70
2009,07,27,11,42,22.60
2009,07,27,11,43,22.60
2009,07,27,11,44,22.60
2009,07,27,11,45,22.50
2009,07,27,11,46,22.30
2009,07,27,11,47,22.20
2009,07,27,11,48,22.20
2009,07,27,11,49,22.10
2009,07,27,11,50,22.10
2009,07,27,11,51,22.00
2009,07,27,11,52,22.00
2009,07,27,11,53,22.00
2009,07,27,11,54,22.00
2009,07,27,11,55,22.00
2009,07,27,11,56,22.00
2009,07,27,11,57,22.00
2009,07,27,11,58,22.00
2009,07,27,11,59,22.00
2009,07,27,12,00,22.00
2009,07,27,12,01,22.10
2009,07,27,12,02,22.20
2009,07,27,12,03,22.30
2009,07,27,12,04,22.30
2009,07,27,12,05,22.30
2009,07,27,12,06,22.30
2009,07,27,12,07,22.30
2009,07,27,12,08,22.40
2009,07,27,12,09,22.40
2009,07,27,12,10,22.40
2009,07,27,12,11,22.50
2009,07,27,12,12,22.60
2009,07,27,12,13,22.70
2009,07,27,12,14,22.80
2009,07,27,12,15,22.90
2009,07,27,12,16,22.90
2009,07,27,12,17,23.10
2009,07,27,12,18,23.20
2009,07,27,12,19,23.30
2009,07,27,12,20,23.40
2009,07,27,12,21,23.50
2009,07,27,12,22,23.70
2009,07,27,12,23,23.70
2009,07,27,12,24,23.80
2009,07,27,12,25,23.70
2009,07,27,12,26,23.70
2009,07,27,12,27,23.70
2009,07,27,12,28,23.70
2009,07,27,12,29,23.70
2009,07,27,12,30,23.70
2009,07,27,12,31,23.80
2009,07,27,12,32,23.80
2009,07,27,12,33,23.80
2009,07,27,12,34,23.80
2009,07,27,12,35,23.80
2009,07,27,12,36,23.70
2009,07,27,12,37,23.70
2009,07,27,12,38,23.70
2009,07,27,12,39,23.60
2009,07,27,12,40,23.60
2009,07,27,12,41,23.40
2009,07,27,12,42,23.40
2009,07,27,12,43,23.40
2009,07,27,12,44,23.40
2009,07,27,12,45,23.40
2009,07,27,12,46,23.50
2009,07,27,12,47,23.70
2009,07,27,12,48,23.70
2009,07,27,12,49,23.70
2009,07,27,12,50,23.80
2009,07,27,12,51,23.80
2009,07,27,12,52,23.80
2009,07,27,12,53,23.90
2009,07,27,12,54,24.00
2009,07,27,12,55,24.10
2009,07,27,12,56,24.10
2009,07,27,12,57,24.20
2009,07,27,12,58,24.20
2009,07,27,12,59,24.10
2009,07,27,13,00,24.10
2009,07,27,13,01,24.10
2009,07,27,13,02,24.10
2009,07,27,13,03,24.00
2009,07,27,13,04,23.90
2009,07,27,13,05,23.90
2009,07,27,13,06,23.90
2009,07,27,13,07,23.80
2009,07,27,13,08,23.80
2009,07,27,13,09,23.90
2009,07,27,13,10,23.90
2009,07,27,13,11,24.00
2009,07,27,13,12,24.10
2009,07,27,13,13,24.20
2009,07,27,13,14,24.30
2009,07,27,13,15,24.40
2009,07,27,13,16,24.60
2009,07,27,13,17,24.80
2009,07,27,13,18,24.90
2009,07,27,13,19,25.00
2009,07,27,13,20,25.10
2009,07,27,13,21,25.30
2009,07,27,13,22,25.40
2009,07,27,13,23,25.50
2009,07,27,13,24,25.60
2009,07,27,13,25,25.60
2009,07,27,13,26,25.70
2009,07,27,13,27,25.60
2009,07,27,13,28,25.60
2009,07,27,13,29,25.50
2009,07,27,13,30,25.50
2009,07,27,13,31,25.40
2009,07,27,13,32,25.30
2009,07,27,13,33,25.20
2009,07,27,13,34,25.20
2009,07,27,13,35,25.20
2009,07,27,13,36,25.30
2009,07,27,13,37,25.30
2009,07,27,13,38,25.40
2009,07,27,13,39,25.40
2009,07,27,13,40,25.40
2009,07,27,13,41,25.40
2009,07,27,13,42,25.20
2009,07,27,13,43,25.10
2009,07,27,13,44,25.00
2009,07,27,13,45,25.00
2009,07,27,13,46,24.90
2009,07,27,13,47,24.90
2009,07,27,13,48,24.90
2009,07,27,13,49,24.90
2009,07,27,13,50,24.90
2009,07,27,13,51,24.90
2009,07,27,13,52,25.00
2009,07,27,13,53,25.10
2009,07,27,13,54,25.20
2009,07,27,13,55,25.40
2009,07,27,13,56,25.50
2009,07,27,13,57,25.60
2009,07,27,13,58,25.60
2009,07,27,13,59,25.70
2009,07,27,14,00,25.90
2009,07,27,14,01,26.00
2009,07,27,14,02,26.00
2009,07,27,14,03,25.80
2009,07,27,14,04,25.60
2009,07,27,14,05,25.60
2009,07,27,14,06,25.60
2009,07,27,14,07,25.70
2009,07,27,14,08,25.90
2009,07,27,14,09,25.90
2009,07,27,14,10,26.00
2009,07,27,14,11,26.10
2009,07,27,14,12,26.00
2009,07,27,14,13,26.00
2009,07,27,14,14,26.10
2009,07,27,14,15,26.20
2009,07,27,14,16,26.30
2009,07,27,14,17,26.30
2009,07,27,14,18,26.30
2009,07,27,14,19,26.30
2009,07,27,14,20,26.20
2009,07,27,14,21,26.20
2009,07,27,14,22,26.20
2009,07,27,14,23,26.20
2009,07,27,14,24,26.30
2009,07,27,14,25,26.30
2009,07,27,14,26,26.40
2009,07,27,14,27,26.50
2009,07,27,14,28,26.60
2009,07,27,14,29,26.60
2009,07,27,14,30,26.70
2009,07,27,14,31,26.80
2009,07,27,14,32,26.90
2009,07,27,14,33,27.10
2009,07,27,14,34,27.00
2009,07,27,14,35,26.90
2009,07,27,14,36,26.80
2009,07,27,14,37,26.70
2009,07,27,14,38,26.60
2009,07,27,14,39,26.60
2009,07,27,14,40,26.60
2009,07,27,14,41,26.60
2009,07,27,14,42,26.60
2009,07,27,14,43,26.70
2009,07,27,14,44,26.80
2009,07,27,14,45,26.90
2009,07,27,14,46,26.90
2009,07,27,14,47,26.90
2009,07,27,14,48,27.00
2009,07,27,14,49,27.10
2009,07,27,14,50,27.10
2009,07,27,14,51,27.20
2009,07,27,14,52,27.30
2009,07,27,14,53,27.30
2009,07,27,14,54,27.30
2009,07,27,14,55,27.30
2009,07,27,14,56,27.30
2009,07,27,14,57,27.30
